Flag for Canada Weather past 2 weeks in Kawartha Lakes, Ontario, Canada

Now
37 °F

Light rain. Fog.


Feels Like: 30 °F
Forecast: 39 / 49 °F
Wind: 10 mph from Southwest

Location: Muskoka

Current Time: Apr 21, 2015 at 7:38:08 PM

Latest Report: Apr 21, 2015 at 7:02 PM


Visibility: 5 mi

Pressure: 29.57 "Hg

Humidity: 93%

Dew point: 36 °F

Location of Kawartha LakesLocation

Historic Weather in Kawartha Lakes — Graph

°F

Kawartha Lakes temperature yesterday

Maximum temperature yesterday: 54 °F (at 5:04 PM)
Minimum temperature yesterday: 41 °F (at 8:00 AM)
Average temperature yesterday: 47 °F

Past Weeks' High & Low Weather Summary

 TemperatureHumidityPressure
High68 °F (Apr 13, 1:00 PM)100% (Apr 6, 7:01 PM)30.44 "Hg (Apr 6, 7:01 PM)
Low25 °F (Apr 12, 4:00 AM)15% (Apr 7, 7:00 PM)29.34 "Hg (Apr 20, 8:00 PM)
Average43 °F69%29.96 "Hg
* Reported Apr 6 6:00 PM — Apr 21 6:00 PM, Kawartha Lakes, Weather by CustomWeather, © 2015

Note: Actual official high and low records may vary slightly from our data, if they occured in-between our weather recording intervals... More about our weather records

Advertising

Kawartha Lakes weather history for previous 24 hours

 ConditionsComfort  
Time TempWeatherWind HumidityBarometerVisibility
6:00 PM
Tue, Apr 21
37 °FLight rain. Cloudy.9 mph93%29.56 "Hg8 mi
5:51 PM37 °FLight rain. Cloudy.6 mph100%29.56 "Hg8 mi
5:00 PM39 °FLight rain. Broken clouds.3 mph93%29.54 "Hg9 mi
4:50 PM39 °FLight rain. Broken clouds.3 mph93%29.53 "Hg9 mi
4:00 PM41 °FLight rain. Cloudy.13 mph81%29.53 "Hg9 mi
3:00 PM43 °FPartly sunny.7 mph76%29.50 "Hg9 mi
2:00 PM39 °FThundershowers. Mostly cloudy.6 mph93%29.52 "Hg7 mi
1:57 PM37 °FThundershowers. Fog.7 mph93%29.52 "Hg4 mi
1:00 PM41 °FMostly cloudy.7 mph93%29.51 "Hg9 mi
12:49 PM39 °FMore clouds than sun.6 mph93%29.51 "Hg9 mi
12:00 PM45 °FCloudy.12 mph66%29.50 "Hg9 mi
11:00 AM45 °FMostly cloudy.12 mph61%29.50 "Hg9 mi
10:00 AM43 °FCloudy.13 mph76%29.50 "Hg9 mi
9:56 AM43 °FCloudy.8 mph81%29.50 "Hg9 mi
9:00 AM41 °FCloudy.7 mph81%29.51 "Hg9 mi
8:00 AM41 °FMostly cloudy.5 mph87%29.49 "Hg9 mi
7:02 AM41 °FLight rain. Mostly cloudy.3 mph87%29.50 "Hg9 mi
6:03 AM41 °FMostly cloudy.5 mph81%29.49 "Hg9 mi
5:04 AM41 °FMostly cloudy.5 mph81%29.48 "Hg9 mi
4:00 AM43 °FOvercast.14 mph81%29.48 "Hg9 mi
3:00 AM43 °FOvercast.8 mph81%29.49 "Hg9 mi
2:00 AM45 °FMostly cloudy.10 mph81%29.49 "Hg9 mi
1:00 AM46 °FLight rain. Overcast.5 mph93%29.46 "Hg9 mi
12:52 AM46 °FLight rain. Mostly cloudy.5 mph93%29.45 "Hg9 mi
12:00 AM48 °FOvercast.5 mph94%29.45 "Hg9 mi
11:01 PM
Mon, Apr 20
50 °FOvercast.7 mph88%29.44 "Hg9 mi
10:00 PM52 °FMostly cloudy.3 mph94%29.42 "Hg9 mi
9:01 PM54 °FHeavy rain. Fog.8 mph94%29.40 "Hg3 mi
8:00 PM54 °FMostly cloudy.15 mph94%29.34 "Hg9 mi
7:00 PM54 °FMostly cloudy.17 mph94%29.35 "Hg9 mi
Weather by CustomWeather, © 2015

See weather overviewHow to use our weather pages